Location: Gleizolles
(44.4833°N, 6.7667°E)
Time: 13:30:22
(UTC+00:00)

deb Explorer IX - Pass Details

Date: 29 June 2024
Orbit: 510 x 878 km, 38.7° (Epoch: 21 July)

Event Time Altitude Azimuth Distance (km) Brightness Sun altitude
Rises 09:53:38 0° 266° (W) 2,816 ? 60.1°
Reaches altitude 10° 09:56:32 10° 245° (WSW) 1,982 ? 60.5°
Maximum altitude 09:59:27 17° 205° (SSW) 1,651 ? 60.9°
Drops below altitude 10° 10:02:34 10° 166° (SSE) 2,133 ? 61.3°
Sets 10:05:52 0° 147° (SSE) 3,136 ? 61.8°
